Terminal Aerodrome Forecast
Issued by NWS

Home | Current Version | Previous Version | Graphics & Text | Print | Product List | Glossary On
Versions: 1 2 3 4 5 6 7 8 9 10 11 12 13 14 15 16 17 18 19
000
FTUS43 KOAX 310520
TAFCDR
TAF
KCDR 310520Z 3106/0106 08005KT P6SM SKC
     FM310900 12007KT P6SM SCT010
     FM311300 16010KT P6SM BKN015
     FM311700 17026G36KT P6SM SCT020
     FM312100 17021G28KT P6SM SCT250=

USA.gov is the U.S. government's official web portal to all federal, state and local government web resources and services.